Weather observations for the past three days for
Patuxent River, Naval Air Station
Imperial (Metric)
Date Time (edt) Wind (mph) Vis. (mi.) Weather Sky Cond. Temperature (ºF) Relative Humidity Wind Chill (°F) Heat Index (°F) Pressure Precipitation (in)
Air Dwpt 6 hour altimeter (in) sea level (mb) 1 hr 3 hr 6 hr
Max. Min.
18 17:52 SE 10 10.00 Fair CLR 84.9 66.9 55% 88 30.22 1023.5
18 16:52 SE 12 10.00 A Few Clouds FEW055 86 66.9 53% 89 30.24 1023.9
18 15:52 SE 9 10.00 A Few Clouds FEW055 87.1 66 50% 89 30.24 1024.1
18 14:52 SE 12 10.00 A Few Clouds FEW055 87.1 63 45% 88 30.26 1024.5
18 13:52 SE 14 10.00 Fair CLR 84.9 69.1 86 78.1 59% 89 30.26 1024.6
18 12:52 SE 15 10.00 Fair CLR 82.9 68 61% 86 30.26 1024.8
18 11:52 SE 10 10.00 A Few Clouds FEW045 FEW250 84 68 59% 87 30.27 1024.9
18 10:52 SE 10 10.00 A Few Clouds FEW040 FEW250 84 66.9 57% 87 30.26 1024.7
18 09:52 Vrbl 5 10.00 Fair CLR 82.9 66 57% 85 30.26 1024.6
18 08:52 Vrbl 7 10.00 A Few Clouds FEW050 80.1 64.9 60% 82 30.25 1024.4
18 07:52 Vrbl 3 10.00 A Few Clouds FEW050 78.1 66 78.1 73.9 67% 80 30.25 1024.3
18 06:52 SE 5 10.00 A Few Clouds FEW050 75 64.9 71% 77 30.25 1024.2
18 05:52 S 6 10.00 Fair CLR 73.9 64 71% 30.23 1023.6
18 04:52 SE 6 10.00 Fair CLR 73.9 64.9 74% 30.22 1023.2
18 03:52 SE 6 10.00 Mostly Cloudy BKN055 BKN070 75 64.9 71% 77 30.21 1023.0
18 02:52 S 6 10.00 Fair CLR 75 64.9 71% 77 30.2 1022.7
18 01:52 S 6 10.00 Overcast BKN050 OVC060 77 64.9 81 77 66% 79 30.2 1022.8
18 00:52 S 9 10.00 Overcast OVC048 77 64.9 66% 79 30.19 1022.3
17 23:52 S 7 10.00 Partly Cloudy SCT049 77 64 64% 79 30.19 1022.3
17 22:52 S 9 10.00 Fair CLR 77 64 64% 79 30.18 1022.0
17 21:52 S 8 10.00 Fair CLR 78.1 64 62% 80 30.17 1021.8
17 20:52 SE 9 10.00 A Few Clouds FEW070 80.1 64 58% 82 30.16 1021.5
17 19:52 S 12 10.00 Fair CLR 81 66 86 81 61% 83 30.16 1021.4
17 18:52 SE 15 G 24 10.00 Fair CLR 82.9 66.9 59% 86 30.13 1020.3
17 17:52 SE 15 10.00 A Few Clouds FEW065 84 69.1 61% 88 30.12 1020.1
17 16:52 SE 15 G 23 10.00 Fair CLR 86 66 51% 88 30.13 1020.3
17 15:52 SE 17 G 25 10.00 Partly Cloudy SCT040 86 64.9 49% 88 30.15 1021.1
17 14:52 SE 15 G 23 10.00 A Few Clouds FEW040 86 70 59% 91 30.15 1021.1
17 13:52 SE 13 G 25 10.00 A Few Clouds FEW037 FEW065 84.9 70 87.1 78.1 61% 89 30.17 1021.7
17 12:52 SE 15 G 23 10.00 A Few Clouds FEW065 86 70 59% 91 30.18 1022.0
17 11:52 S 12 10.00 A Few Clouds FEW065 86 66 51% 88 30.19 1022.4
17 10:52 S 8 10.00 A Few Clouds FEW060 84 66.9 57% 87 30.2 1022.8
17 09:52 S 9 10.00 A Few Clouds FEW065 81 66.9 62% 83 30.21 1023.1
17 08:52 S 10 G 20 10.00 Overcast OVC065 79 64.9 62% 81 30.22 1023.2
17 07:52 S 8 10.00 Mostly Cloudy BKN070 78.1 64 78.1 73 62% 80 30.21 1022.9
17 06:52 S 5 10.00 Mostly Cloudy FEW060 BKN075 75 63 66% 77 30.21 1022.9
17 05:52 S 3 10.00 Partly Cloudy SCT075 73 61 66% 30.2 1022.7
17 04:52 S 6 10.00 Partly Cloudy SCT080 75 61 62% 77 30.19 1022.2
17 03:52 S 7 10.00 Overcast OVC075 75.9 60.1 58% 78 30.18 1022.1
17 02:52 Vrbl 5 10.00 Overcast OVC075 75.9 57.9 54% 78 30.19 1022.3
17 01:52 S 6 10.00 Overcast OVC070 75.9 61 80.1 75 60% 78 30.19 1022.4
17 00:52 S 6 10.00 Overcast OVC075 75.9 61 60% 78 30.2 1022.6
16 23:52 S 6 10.00 Fair CLR 75 60.1 60% 77 30.19 1022.2
16 22:52 S 8 10.00 Fair CLR 75.9 60.1 58% 78 30.18 1022.0
16 21:52 SE 9 10.00 Fair CLR 77 61 58% 79 30.17 1021.7
16 20:52 S 8 10.00 Fair CLR 78.1 63 60% 80 30.16 1021.4
16 19:52 SE 10 10.00 Fair CLR 80.1 63 86 80.1 56% 81 30.16 1021.4
16 18:52 SE 10 10.00 Fair CLR 82 61 49% 83 30.16 1021.3
16 17:52 SE 13 10.00 A Few Clouds FEW050 FEW070 82.9 57 41% 82 30.16 1021.3
16 16:52 SE 12 10.00 A Few Clouds FEW050 FEW100 84 57 40% 83 30.17 1021.7
16 15:52 SE 12 10.00 A Few Clouds FEW050 FEW100 84 61 46% 84 30.18 1022.0
16 14:52 SE 10 10.00 A Few Clouds FEW060 84.9 57.9 40% 84 30.2 1022.5
16 13:52 Vrbl 6 10.00 Partly Cloudy SCT050 84.9 61 84.9 75 45% 85 30.2 1022.8
16 12:52 Calm 10.00 Partly Cloudy SCT040 84 63 49% 85 30.21 1023.1
16 11:52 E 8 10.00 Partly Cloudy SCT040 84 64 51% 85 30.22 1023.2
16 10:52 E 7 10.00 A Few Clouds FEW038 82 63 53% 83 30.21 1023.1
16 09:52 Calm 10.00 Mostly Cloudy BKN150 81 61 51% 82 30.21 1022.9
16 08:52 W 6 10.00 Partly Cloudy SCT150 79 64 60% 81 30.2 1022.8
16 07:52 SW 7 10.00 A Few Clouds FEW120 FEW170 75 66.9 75 64 76% 76 30.19 1022.4
16 06:52 Calm 10.00 A Few Clouds FEW130 69.1 64 84% 30.17 1021.8
16 05:52 SW 3 10.00 Fair CLR 66 61 84% 30.15 1021.0
16 04:52 SW 5 10.00 NULL NULL 64.9 60.1 84% 30.14 1020.6
16 03:52 Calm 10.00 Fair CLR 64.9 60.1 84% 30.13 1020.4
16 02:52 Calm 10.00 Fair CLR 68 61 78% 30.13 1020.2
16 01:52 SW 3 10.00 Fair CLR 66 60.1 82 64.9 81% 30.12 1020.0
16 00:52 Calm 10.00 Fair CLR 66 59 78% 30.12 1020.0
15 23:52 Calm 10.00 Fair CLR 70 59 68% 30.11 1019.6
15 22:52 SW 5 10.00 Fair CLR 68 59 73% 30.1 1019.2
15 21:52 SW 5 10.00 Fair CLR 70 60.1 71% 30.09 1018.8
15 20:52 N 5 10.00 Fair CLR 79 57.9 49% 80 30.07 1018.3
15 19:52 N 6 10.00 Fair CLR 82 55 86 82 40% 81 30.06 1017.9
15 18:52 N 8 10.00 Fair CLR 82.9 55 38% 82 30.05 1017.5
Date Time (edt) Wind (mph) Vis. (mi.) Weather Sky Cond. Air Dwpt Max. Min. Relative Humidity Wind Chill (°F) Heat Index (°F) altimeter (in) sea level (mb) 1 hr 3 hr 6 hr
6 hour
Temperature (ºF) Pressure Precipitation (in)